EW0631 Weather Reports


Display with metric or nautical units.
time (UTC)temp
F
wind
direction
speed
MPH
gust
MPH
rain 1hr
in
rain 24hr
in
rain mn
in
humidity
%
barometer
mb
20260510174543 81 306 2.0 7.0 0.00 0.00 0.00 49 1016.9
20260510173035 81 305 0.0 5.0 0.00 0.00 0.00 52 1017.1
20260510171519 80 302 0.0 4.0 0.00 0.00 0.00 53 1017.3
20260510170019 80 309 1.0 6.0 0.00 0.00 0.00 50 1017.4
20260510164515 79 217 0.0 2.0 0.00 0.00 0.00 53 1017.3
20260510163015 79 204 0.0 2.0 0.00 0.00 0.00 53 1017.5
20260510161522 78 195 0.0 1.0 0.00 0.00 0.00 55 1017.5
20260510160009 78 226 0.0 4.0 0.00 0.00 0.00 55 1017.5
20260510154507 77 118 0.0 2.0 0.00 0.00 0.00 57 1017.5
20260510153005 76 117 0.0 1.0 0.00 0.00 0.00 59 1017.4
20260510151551 75 116 0.0 4.0 0.00 0.00 0.00 59 1017.3
20260510150100 74 113 0.0 1.0 0.00 0.00 0.00 58 1017.0
20260510144605 73 113 0.0 2.0 0.00 0.00 0.00 62 1016.8
20260510143044 72 113 0.0 2.0 0.00 0.00 0.00 63 1016.7
20260510141543 71 115 0.0 4.0 0.00 0.00 0.00 68 1016.8
20260510140042 70 114 0.0 1.0 0.00 0.00 0.00 70 1016.8
20260510134547 69 114 0.0 2.0 0.00 0.00 0.00 72 1016.7
20260510133047 67 114 0.0 2.0 0.00 0.00 0.00 74 1016.6
20260510131527 65 117 0.0 4.0 0.00 0.00 0.00 79 1016.5
20260510130027 64 116 0.0 2.0 0.00 0.00 0.00 83 1016.6
20260510124525 62 114 0.0 1.0 0.00 0.00 0.00 84 1016.6
20260510123026 61 116 0.0 0.0 0.00 0.00 0.00 86 1016.7
20260510121526 60 116 0.0 0.0 0.00 0.00 0.00 87 1016.8
20260510120022 59 116 0.0 0.0 0.00 0.00 0.00 87 1016.5
20260510114523 59 116 0.0 0.0 0.00 0.00 0.00 86 1016.2
20260510113018 58 116 0.0 0.0 0.00 0.00 0.00 86 1016.0
20260510111502 0 0.0 0.0 0.00 0.00 0.00 1015.7
20260510110058 0 0.0 0.0 0.00 0.00 0.00 1015.3
20260510104601 0 0.0 0.0 0.00 0.00 0.00 1015.0
20260510103050 0 0.0 0.0 0.00 0.00 0.00 1014.8
20260510101547 0 0.0 0.0 0.00 0.00 0.00 1014.7
20260510100056 58 116 0.0 0.0 0.00 0.00 0.00 81 1014.6
20260510094545 58 116 0.0 0.0 0.00 0.00 0.00 80 1014.5
20260510093034 58 116 0.0 0.0 0.00 0.00 0.00 79 1014.1
20260510091523 58 116 0.0 0.0 0.00 0.00 0.00 78 1013.9
20260510090024 58 116 0.0 0.0 0.00 0.00 0.00 77 1013.7
20260510084526 59 116 0.0 0.0 0.00 0.00 0.00 77 1013.8
20260510083019 59 116 0.0 0.0 0.00 0.00 0.00 76 1013.8
20260510081515 59 116 0.0 0.0 0.00 0.00 0.00 74 1013.5
20260510080015 60 116 0.0 0.0 0.00 0.00 0.00 73 1013.4
20260510074511 61 116 0.0 0.0 0.00 0.00 0.00 72 1013.4
20260510073009 61 116 0.0 0.0 0.00 0.00 0.00 70 1013.3
20260510071557 62 116 0.0 0.0 0.00 0.00 0.00 69 1013.4
20260510070108 63 116 0.0 0.0 0.00 0.00 0.00 68 1013.6
20260510064600 63 116 0.0 0.0 0.00 0.00 0.00 67 1013.8
20260510063059 63 116 0.0 0.0 0.00 0.00 0.00 66 1013.7
20260510061552 62 116 0.0 0.0 0.00 0.00 0.00 67 1013.5
20260510060052 63 116 0.0 0.0 0.00 0.00 0.00 70 1013.4
20260510054556 62 116 0.0 0.0 0.00 0.00 0.00 69 1013.4
20260510053049 62 116 0.0 0.0 0.00 0.00 0.00 70 1013.4
20260510051537 62 116 0.0 0.0 0.00 0.00 0.00 70 1013.2
20260510050035 62 116 0.0 0.0 0.00 0.00 0.00 68 1013.2
20260510044532 63 116 0.0 0.0 0.00 0.00 0.00 67 1013.0
20260510043030 63 116 0.0 0.0 0.00 0.00 0.00 67 1013.0
20260510041539 64 116 0.0 0.0 0.00 0.00 0.00 66 1013.0
20260510040027 64 116 0.0 0.0 0.00 0.00 0.00 65 1013.0
20260510034526 64 116 0.0 0.0 0.00 0.00 0.00 64 1013.0
20260510033024 65 116 0.0 1.0 0.00 0.00 0.00 63 1013.0
20260510031528 65 116 0.0 0.0 0.00 0.00 0.00 61 1013.0
20260510030003 66 116 0.0 0.0 0.00 0.00 0.00 59 1012.9
20260510024600 67 116 0.0 0.0 0.00 0.00 0.00 57 1012.8
20260510023039 67 116 0.0 0.0 0.00 0.00 0.00 58 1012.6
20260510021539 69 116 0.0 0.0 0.00 0.00 0.00 55 1012.5
20260510020025 69 116 0.0 0.0 0.00 0.00 0.00 53 1012.3
20260510014520 70 116 0.0 1.0 0.00 0.00 0.00 52 1012.1
20260510013018 71 116 0.0 0.0 0.00 0.00 0.00 50 1012.0
20260510011519 73 116 0.0 0.0 0.00 0.00 0.00 48 1011.8
20260510010019 75 116 0.0 0.0 0.00 0.00 0.00 46 1011.5
20260510004519 77 116 0.0 0.0 0.00 0.00 0.00 41 1011.4
20260510003017 78 116 0.0 0.0 0.00 0.00 0.00 38 1011.2
20260510001522 80 116 0.0 0.0 0.00 0.00 0.00 35 1011.1
20260510000005 80 116 0.0 1.0 0.00 0.00 0.00 32 1011.1
20260509234506 81 116 0.0 1.0 0.00 0.00 0.00 33 1010.9
20260509233004 81 117 0.0 2.0 0.00 0.00 0.00 31 1010.8
20260509231505 82 117 0.0 4.0 0.00 0.00 0.00 29 1010.6
20260509230003 83 114 0.0 4.0 0.00 0.00 0.00 28 1010.6
20260509224503 83 112 0.0 4.0 0.00 0.00 0.00 27 1010.7
20260509223102 83 96 2.0 5.0 0.00 0.00 0.00 28 1010.8
20260509223002 83 90 2.0 5.0 0.00 0.00 0.00 28 1010.8
20260509221601 83 84 1.0 6.0 0.00 0.00 0.00 29 1010.8
20260509221502 83 113 2.0 6.0 0.00 0.00 0.00 28 1010.9
20260509220055 84 119 1.0 3.0 0.00 0.00 0.00 28 1010.9
20260509214543 84 115 0.0 4.0 0.00 0.00 0.00 29 1010.9
20260509213028 84 88 0.0 2.0 0.00 0.00 0.00 32 1010.8
20260509211528 84 121 0.0 4.0 0.00 0.00 0.00 31 1010.8
20260509210028 84 101 1.0 5.0 0.00 0.00 0.00 32 1010.8
20260509204529 84 302 0.0 4.0 0.00 0.00 0.00 32 1010.8
20260509203021 83 184 0.0 4.0 0.00 0.00 0.00 34 1010.9
20260509201521 83 126 0.0 5.0 0.00 0.00 0.00 34 1011.0
20260509200019 83 128 0.0 4.0 0.00 0.00 0.00 35 1011.1
20260509194515 82 139 1.0 4.0 0.00 0.00 0.00 36 1011.3
20260509193002 82 184 2.0 7.0 0.00 0.00 0.00 37 1011.5
20260509191614 82 140 0.0 5.0 0.00 0.00 0.00 39 1011.5
20260509190100 81 161 0.0 2.0 0.00 0.00 0.00 43 1011.8
20260509184554 80 228 0.0 2.0 0.00 0.00 0.00 41 1011.9
20260509183052 78 209 0.0 5.0 0.00 0.00 0.00 43 1012.0
20260509181602 78 305 2.0 6.0 0.00 0.00 0.00 44 1012.0
20260509180050 79 48 0.0 5.0 0.00 0.00 0.00 46 1012.0